Starlink 4467

operational
NORAD ID: 53686 Int'l Des: 2022-105 Owner: SPXS Country: US Constellation: starlink
LEOCIRCULARRETROGRADESSO

About Starlink 4467

Description loading...

Live Position

Loading 3D Globe...

Upcoming Passes

Altitude History

Altitude vs Time

uPlot chart will show altitude changes over time

Two-Line Element Set

1 53686U 22105AQ 25261.13382009 .00000027 00000-0 66235-5 0 9996
2 53686 97.6033 141.3445 0002426 45.5528 314.5895 15.01260335167356
Epoch: Sep 18, 2025 • Age: 18 hours

Current Status

Altitude 571.0 km
Velocity 7.58 km/s
Sub-Earth Point 57.36°N, 176.1°E
Launch Date Aug 31, 2022
Age 3 years
Type internet

Technical Details

Classification Payload
Mass 300.00 kg
Dry Mass 290.00 kg
Total Mass 300.00 kg
Length 0.20 m
Diameter 2.80 m
Span 9.00 m
Shape Box + pan
Manufacturer SPXS
Bus Type Starlink
Phase Status In Orbit
Owner/State SPXS/US

Large Constellations

Loading constellations...